Weather History for O'Neill, NE

Change the Weather History Date:

Thursday, May 16, 2013

  Actual Average Record
Temperature  
Mean Temperature 66 °F -  
Max Temperature 76 °F 75 °F 89 °F (1987)
Min Temperature 55 °F 46 °F 32 °F (2014)
Growing Degree Days 16 (Base 50)    
Moisture  
Dew Point 52 °F    
Average Humidity 69    
Maximum Humidity 94    
Minimum Humidity 29    
Precipitation  
Precipitation 0.51 in - - ()
Sea Level Pressure  
Sea Level Pressure 29.84 in    
Wind  
Wind Speed 9 mph (East)    
Max Wind Speed 24 mph    
Max Gust Speed 58 mph    
Visibility 10 miles    
Events Rain , Thunderstorm    
Averages and records for this station are not official NWS values.
T = Trace of Precipitation, MM = Missing Value Source: NWS Daily Summary

Daily Weather History Graph

Daily Weather History Graph

Search for Another Location

Airport:

Trip Planner

Search our weather history database for the weather conditions in past years. The results will help you decide how hot, cold, wet, or windy it might be!

Date:

Astronomy

May. 16, 2013 Rise Set
Actual Time 6:11 AM CDT 8:51 PM CDT
Civil Twilight 5:39 AM CDT 9:23 PM CDT
Nautical Twilight 4:58 AM CDT 10:04 PM CDT
Astronomical Twilight 4:12 AM CDT 10:50 PM CDT
Moon 11:48 AM CDT (5/16) 1:10 AM CDT (5/16)
Length of Visible Light 15h 44m
Length of Day
14h 39m
Waxing Crescent, 36% of the Moon is Illuminated
May 16
Waxing Crescent
May 17
First Quarter
May 24
Full
May 31
Last Quarter
Jun 8
New

Hourly Weather History & Observations

Time (CDT) Temp. Dew Point Humidity Pressure Visibility Wind Dir Wind Speed Gust Speed Precip Events Conditions
12:15 AM 61.3 °F 45.5 °F 56% 29.91 in 10.0 mi NE 9.2 mph - N/A   Clear
12:35 AM 61.0 °F 45.5 °F 57% 29.90 in 10.0 mi ENE 8.1 mph - N/A   Clear
12:55 AM 59.5 °F 45.7 °F 60% 29.90 in 10.0 mi ENE 6.9 mph - N/A   Clear
1:15 AM 59.9 °F 45.5 °F 59% 29.90 in 10.0 mi ENE 6.9 mph - N/A   Clear
1:35 AM 59.2 °F 45.5 °F 60% 29.90 in 10.0 mi ENE 8.1 mph - N/A   Scattered Clouds
1:55 AM 58.5 °F 46.4 °F 64% 29.90 in 10.0 mi East 8.1 mph - N/A   Scattered Clouds
2:15 AM 58.5 °F 46.6 °F 65% 29.90 in 10.0 mi East 9.2 mph - N/A   Scattered Clouds
2:35 AM 59.9 °F 47.1 °F 63% 29.89 in 10.0 mi ENE 8.1 mph - N/A   Mostly Cloudy
2:55 AM 58.3 °F 46.9 °F 66% 29.88 in 10.0 mi East 6.9 mph - N/A   Scattered Clouds
3:15 AM 56.7 °F 46.4 °F 69% 29.88 in 10.0 mi ENE 5.8 mph - N/A   Clear
3:35 AM 57.2 °F 46.4 °F 67% 29.88 in 10.0 mi ENE 6.9 mph - N/A   Scattered Clouds
3:55 AM 57.0 °F 46.9 °F 69% 29.88 in 10.0 mi East 6.9 mph - N/A   Scattered Clouds
4:15 AM 57.2 °F 46.8 °F 68% 29.88 in 10.0 mi East 6.9 mph - N/A   Scattered Clouds
4:35 AM 56.1 °F 46.6 °F 70% 29.88 in 10.0 mi East 6.9 mph - N/A   Scattered Clouds
4:55 AM 56.8 °F 46.4 °F 68% 29.88 in 10.0 mi East 5.8 mph - N/A   Scattered Clouds
5:15 AM 55.6 °F 46.6 °F 72% 29.88 in 10.0 mi ENE 5.8 mph - N/A   Scattered Clouds
5:35 AM 57.4 °F 47.3 °F 69% 29.88 in 10.0 mi East 5.8 mph - N/A   Overcast
5:55 AM 57.6 °F 46.9 °F 68% 29.88 in 10.0 mi East 5.8 mph - N/A   Overcast
6:37 AM 57.2 °F 48.2 °F 72% 29.88 in 10.0 mi East 4.6 mph - N/A   Overcast
7:17 AM 57.2 °F 48.2 °F 72% 29.88 in 10.0 mi East 8.1 mph - N/A   Scattered Clouds
7:37 AM 60.8 °F 46.4 °F 59% 29.88 in 10.0 mi East 9.2 mph - N/A   Scattered Clouds
7:55 AM 62.4 °F 46.6 °F 56% 29.88 in 10.0 mi ESE 8.1 mph - N/A   Scattered Clouds
8:15 AM 65.3 °F 45.7 °F 49% 29.88 in 10.0 mi SE 8.1 mph - N/A   Scattered Clouds
8:35 AM 66.4 °F 46.0 °F 48% 29.87 in 10.0 mi SE 9.2 mph - N/A   Mostly Cloudy
8:55 AM 68.2 °F 46.9 °F 47% 29.87 in 10.0 mi SE 9.2 mph - N/A   Mostly Cloudy
9:15 AM 71.6 °F 46.0 °F 40% 29.87 in 10.0 mi SE 10.4 mph 17.3 mph N/A   Clear
9:35 AM 72.7 °F 45.9 °F 38% 29.86 in 10.0 mi SE 11.5 mph - N/A Thunderstorm Clear
9:55 AM 73.0 °F 46.4 °F 39% 29.86 in 10.0 mi SE 16.1 mph 20.7 mph N/A   Scattered Clouds
10:15 AM 75.2 °F 45.7 °F 35% 29.85 in 10.0 mi SE 17.3 mph 20.7 mph N/A Thunderstorm Mostly Cloudy
10:35 AM 73.4 °F 45.5 °F 37% 29.85 in 10.0 mi SE 15.0 mph 21.9 mph N/A   Overcast
10:55 AM 75.0 °F 42.8 °F 32% 29.84 in 10.0 mi SE 18.4 mph 24.2 mph N/A   Overcast
11:15 AM 75.6 °F 42.6 °F 31% 29.83 in 10.0 mi ESE 24.2 mph 28.8 mph N/A   Mostly Cloudy
11:35 AM 76.5 °F 43.5 °F 31% 29.83 in 10.0 mi ESE 18.4 mph 29.9 mph N/A   Scattered Clouds
11:55 AM 75.7 °F 42.8 °F 31% 29.81 in 10.0 mi ESE 19.6 mph 27.6 mph N/A Thunderstorm Mostly Cloudy
12:15 PM 76.1 °F 41.4 °F 29% 29.81 in 10.0 mi ESE 18.4 mph 27.6 mph N/A Thunderstorm Overcast
12:35 PM 62.4 °F 55.0 °F 77% 29.91 in 1.0 mi WSW 19.6 mph 57.5 mph 0.31 in Rain , Thunderstorm Heavy Thunderstorms and Rain
12:55 PM 61.2 °F 58.8 °F 92% 29.92 in 4.0 mi WNW 9.2 mph - 0.43 in Rain , Thunderstorm Thunderstorms and Rain
1:15 PM 60.8 °F 58.5 °F 92% 29.89 in 5.0 mi NNE 5.8 mph - 0.06 in Rain , Thunderstorm Rain
1:35 PM 61.2 °F 58.6 °F 91% 29.88 in 10.0 mi NE 11.5 mph - 0.08 in Rain Light Rain
1:55 PM 60.8 °F 59.0 °F 94% 29.86 in 10.0 mi ENE 9.2 mph - N/A Thunderstorm Overcast
2:15 PM 61.0 °F 57.9 °F 90% 29.84 in 10.0 mi ENE 13.8 mph - N/A Rain Light Rain
2:35 PM 61.2 °F 57.9 °F 89% 29.83 in 10.0 mi ENE 11.5 mph - N/A   Mostly Cloudy
2:55 PM 61.7 °F 58.1 °F 88% 29.83 in 10.0 mi ENE 15.0 mph - N/A   Mostly Cloudy
3:15 PM 61.7 °F 57.7 °F 87% 29.82 in 10.0 mi ENE 8.1 mph 17.3 mph N/A   Overcast
3:35 PM 62.6 °F 57.4 °F 83% 29.81 in 10.0 mi East 12.7 mph - N/A   Overcast
3:55 PM 63.1 °F 57.7 °F 83% 29.81 in 10.0 mi East 13.8 mph - N/A   Overcast
4:15 PM 63.5 °F 57.4 °F 80% 29.80 in 10.0 mi East 10.4 mph - N/A   Overcast
4:35 PM 64.9 °F 58.1 °F 78% 29.79 in 10.0 mi East 12.7 mph - N/A   Overcast
4:55 PM 64.4 °F 57.2 °F 77% 29.78 in 10.0 mi East 12.7 mph - N/A   Overcast
5:15 PM 64.9 °F 58.3 °F 79% 29.78 in 10.0 mi ESE 11.5 mph - N/A   Overcast
5:35 PM 65.8 °F 58.5 °F 77% 29.78 in 10.0 mi SE 10.4 mph - N/A   Overcast
5:55 PM 66.0 °F 58.5 °F 77% 29.78 in 10.0 mi ESE 11.5 mph 16.1 mph N/A   Mostly Cloudy
6:15 PM 66.2 °F 59.0 °F 78% 29.77 in 10.0 mi SE 11.5 mph - N/A   Mostly Cloudy
6:35 PM 66.4 °F 59.5 °F 79% 29.77 in 10.0 mi SE 8.1 mph - N/A   Overcast
6:55 PM 66.4 °F 59.5 °F 79% 29.78 in 10.0 mi East 5.8 mph - N/A   Overcast
7:15 PM 66.4 °F 59.9 °F 80% 29.78 in 10.0 mi East 3.5 mph - N/A   Overcast
7:35 PM 66.2 °F 60.3 °F 81% 29.77 in 10.0 mi ESE 6.9 mph - N/A   Overcast
7:55 PM 66.4 °F 60.8 °F 82% 29.78 in 10.0 mi ESE 6.9 mph - N/A   Mostly Cloudy
8:15 PM 67.1 °F 61.0 °F 81% 29.80 in 10.0 mi East 3.5 mph - N/A   Mostly Cloudy
8:35 PM 66.7 °F 60.8 °F 81% 29.79 in 10.0 mi ESE 4.6 mph - N/A Thunderstorm Scattered Clouds
8:55 PM 66.2 °F 60.3 °F 81% 29.79 in 10.0 mi SE 5.8 mph - N/A   Clear
9:15 PM 65.3 °F 59.9 °F 83% 29.80 in 10.0 mi East 3.5 mph - N/A   Clear
9:35 PM 65.3 °F 59.9 °F 83% 29.79 in 10.0 mi East 6.9 mph - N/A Thunderstorm Thunderstorm
9:55 PM 64.6 °F 59.9 °F 85% 29.79 in 10.0 mi Calm Calm - N/A   Scattered Clouds
10:15 PM 63.7 °F 59.9 °F 87% 29.80 in 10.0 mi Calm Calm - N/A   Scattered Clouds
10:35 PM 63.3 °F 59.5 °F 87% 29.80 in 10.0 mi South 3.5 mph - N/A   Mostly Cloudy
10:55 PM 61.7 °F 59.2 °F 91% 29.81 in 10.0 mi Calm Calm - N/A   Overcast
11:15 PM 61.5 °F 59.0 °F 91% 29.81 in 10.0 mi South 4.6 mph - N/A   Mostly Cloudy
11:35 PM 61.9 °F 57.9 °F 87% 29.81 in 10.0 mi SSW 5.8 mph - N/A   Overcast
11:55 PM 61.7 °F 56.3 °F 82% 29.81 in 10.0 mi SSE 5.8 mph - N/A   Scattered Clouds